Year,Month,Day,Hour,Minute,Value (Times are PST for temperature in C)
2014,05,23,00,00,14.20
2014,05,23,00,01,14.20
2014,05,23,00,02,14.20
2014,05,23,00,03,14.20
2014,05,23,00,04,14.20
2014,05,23,00,05,14.20
2014,05,23,00,06,14.20
2014,05,23,00,07,14.20
2014,05,23,00,08,14.20
2014,05,23,00,09,14.20
2014,05,23,00,10,14.20
2014,05,23,00,11,14.20
2014,05,23,00,12,14.20
2014,05,23,00,13,14.20
2014,05,23,00,14,14.20
2014,05,23,00,15,14.20
2014,05,23,00,16,14.20
2014,05,23,00,17,14.10
2014,05,23,00,18,14.10
2014,05,23,00,19,14.10
2014,05,23,00,20,14.10
2014,05,23,00,21,14.10
2014,05,23,00,22,14.10
2014,05,23,00,23,14.10
2014,05,23,00,24,14.10
2014,05,23,00,25,14.10
2014,05,23,00,26,14.10
2014,05,23,00,27,14.10
2014,05,23,00,28,14.10
2014,05,23,00,29,14.10
2014,05,23,00,30,14.10
2014,05,23,00,31,14.10
2014,05,23,00,32,14.10
2014,05,23,00,33,14.10
2014,05,23,00,34,14.10
2014,05,23,00,35,14.00
2014,05,23,00,36,14.00
2014,05,23,00,37,14.10
2014,05,23,00,38,14.10
2014,05,23,00,39,14.00
2014,05,23,00,40,14.00
2014,05,23,00,41,14.00
2014,05,23,00,42,14.00
2014,05,23,00,43,14.00
2014,05,23,00,44,14.00
2014,05,23,00,45,14.10
2014,05,23,00,46,14.10
2014,05,23,00,47,14.10
2014,05,23,00,48,14.10
2014,05,23,00,49,14.20
2014,05,23,00,50,14.20
2014,05,23,00,51,14.20
2014,05,23,00,52,14.20
2014,05,23,00,53,14.30
2014,05,23,00,54,14.30
2014,05,23,00,55,14.30
2014,05,23,00,56,14.30
2014,05,23,00,57,14.30
2014,05,23,00,58,14.30
2014,05,23,00,59,14.30
2014,05,23,01,00,14.30
2014,05,23,01,01,14.30
2014,05,23,01,02,14.30
2014,05,23,01,03,14.30
2014,05,23,01,04,14.30
2014,05,23,01,05,14.30
2014,05,23,01,06,14.30
2014,05,23,01,07,14.20
2014,05,23,01,08,14.20
2014,05,23,01,09,14.20
2014,05,23,01,10,14.20
2014,05,23,01,11,14.20
2014,05,23,01,12,14.20
2014,05,23,01,13,14.20
2014,05,23,01,14,14.20
2014,05,23,01,15,14.20
2014,05,23,01,16,14.20
2014,05,23,01,17,14.20
2014,05,23,01,18,14.20
2014,05,23,01,19,14.20
2014,05,23,01,20,14.20
2014,05,23,01,21,14.20
2014,05,23,01,22,14.20
2014,05,23,01,23,14.20
2014,05,23,01,24,14.20
2014,05,23,01,25,14.20
2014,05,23,01,26,14.20
2014,05,23,01,27,14.20
2014,05,23,01,28,14.20
2014,05,23,01,29,14.10
2014,05,23,01,30,14.10
2014,05,23,01,31,14.10
2014,05,23,01,32,14.10
2014,05,23,01,33,14.10
2014,05,23,01,34,14.10
2014,05,23,01,35,14.10
2014,05,23,01,36,14.10
2014,05,23,01,37,14.00
2014,05,23,01,38,14.00
2014,05,23,01,39,14.00
2014,05,23,01,40,14.00
2014,05,23,01,41,14.00
2014,05,23,01,42,14.00
2014,05,23,01,43,14.00
2014,05,23,01,44,14.00
2014,05,23,01,45,14.00
2014,05,23,01,46,14.00
2014,05,23,01,47,14.00
2014,05,23,01,48,14.00
2014,05,23,01,49,14.00
2014,05,23,01,50,14.00
2014,05,23,01,51,14.00
2014,05,23,01,52,14.00
2014,05,23,01,53,14.00
2014,05,23,01,54,14.00
2014,05,23,01,55,14.00
2014,05,23,01,56,14.00
2014,05,23,01,57,14.00
2014,05,23,01,58,14.00
2014,05,23,01,59,14.00
2014,05,23,02,00,14.00
2014,05,23,02,01,14.00
2014,05,23,02,02,13.90
2014,05,23,02,03,13.90
2014,05,23,02,04,13.90
2014,05,23,02,05,13.90
2014,05,23,02,06,13.90
2014,05,23,02,07,13.90
2014,05,23,02,08,13.90
2014,05,23,02,09,13.90
2014,05,23,02,10,13.90
2014,05,23,02,11,13.90
2014,05,23,02,12,13.90
2014,05,23,02,13,13.90
2014,05,23,02,14,13.90
2014,05,23,02,15,13.90
2014,05,23,02,16,13.90
2014,05,23,02,17,13.90
2014,05,23,02,18,13.90
2014,05,23,02,19,13.90
2014,05,23,02,20,13.90
2014,05,23,02,21,13.90
2014,05,23,02,22,13.80
2014,05,23,02,23,13.80
2014,05,23,02,24,13.80
2014,05,23,02,25,13.80
2014,05,23,02,26,13.80
2014,05,23,02,27,13.80
2014,05,23,02,28,13.80
2014,05,23,02,29,13.80
2014,05,23,02,30,13.80
2014,05,23,02,31,13.80
2014,05,23,02,32,13.80
2014,05,23,02,33,13.80
2014,05,23,02,34,13.80
2014,05,23,02,35,13.80
2014,05,23,02,36,13.80
2014,05,23,02,37,13.80
2014,05,23,02,38,13.80
2014,05,23,02,39,13.80
2014,05,23,02,40,13.80
2014,05,23,02,41,13.80
2014,05,23,02,42,13.70
2014,05,23,02,43,13.70
2014,05,23,02,44,13.70
2014,05,23,02,45,13.70
2014,05,23,02,46,13.70
2014,05,23,02,47,13.70
2014,05,23,02,48,13.80
2014,05,23,02,49,13.80
2014,05,23,02,50,13.80
2014,05,23,02,51,13.80
2014,05,23,02,52,13.80
2014,05,23,02,53,13.70
2014,05,23,02,54,13.70
2014,05,23,02,55,13.70
2014,05,23,02,56,13.70
2014,05,23,02,57,13.70
2014,05,23,02,58,13.70
2014,05,23,02,59,13.70
2014,05,23,03,00,13.70
2014,05,23,03,01,13.70
2014,05,23,03,02,13.70
2014,05,23,03,03,13.70
2014,05,23,03,04,13.70
2014,05,23,03,05,13.70
2014,05,23,03,06,13.70
2014,05,23,03,07,13.70
2014,05,23,03,08,13.70
2014,05,23,03,09,13.70
2014,05,23,03,10,13.70
2014,05,23,03,11,13.70
2014,05,23,03,12,13.70
2014,05,23,03,13,13.70
2014,05,23,03,14,13.70
2014,05,23,03,15,13.70
2014,05,23,03,16,13.70
2014,05,23,03,17,13.70
2014,05,23,03,18,13.70
2014,05,23,03,19,13.70
2014,05,23,03,20,13.70
2014,05,23,03,21,13.70
2014,05,23,03,22,13.70
2014,05,23,03,23,13.70
2014,05,23,03,24,13.70
2014,05,23,03,25,13.70
2014,05,23,03,26,13.60
2014,05,23,03,27,13.60
2014,05,23,03,28,13.60
2014,05,23,03,29,13.60
2014,05,23,03,30,13.60
2014,05,23,03,31,13.60
2014,05,23,03,32,13.60
2014,05,23,03,33,13.60
2014,05,23,03,34,13.60
2014,05,23,03,35,13.60
2014,05,23,03,36,13.60
2014,05,23,03,37,13.60
2014,05,23,03,38,13.60
2014,05,23,03,39,13.60
2014,05,23,03,40,13.60
2014,05,23,03,41,13.60
2014,05,23,03,42,13.60
2014,05,23,03,43,13.60
2014,05,23,03,44,13.60
2014,05,23,03,45,13.60
2014,05,23,03,46,13.60
2014,05,23,03,47,13.60
2014,05,23,03,48,13.60
2014,05,23,03,49,13.60
2014,05,23,03,50,13.60
2014,05,23,03,51,13.60
2014,05,23,03,52,13.60
2014,05,23,03,53,13.60
2014,05,23,03,54,13.60
2014,05,23,03,55,13.70
2014,05,23,03,56,13.70
2014,05,23,03,57,13.70
2014,05,23,03,58,13.70
2014,05,23,03,59,13.70
2014,05,23,04,00,13.70
2014,05,23,04,01,13.70
2014,05,23,04,02,13.70
2014,05,23,04,03,13.70
2014,05,23,04,04,13.70
2014,05,23,04,05,13.70
2014,05,23,04,06,13.60
2014,05,23,04,07,13.60
2014,05,23,04,08,13.60
2014,05,23,04,09,13.60
2014,05,23,04,10,13.60
2014,05,23,04,11,13.60
2014,05,23,04,12,13.60
2014,05,23,04,13,13.60
2014,05,23,04,14,13.60
2014,05,23,04,15,13.60
2014,05,23,04,16,13.60
2014,05,23,04,17,13.60
2014,05,23,04,18,13.60
2014,05,23,04,19,13.60
2014,05,23,04,20,13.60
2014,05,23,04,21,13.70
2014,05,23,04,22,13.70
2014,05,23,04,23,13.70
2014,05,23,04,24,13.70
2014,05,23,04,25,13.70
2014,05,23,04,26,13.70
2014,05,23,04,27,13.70
2014,05,23,04,28,13.70
2014,05,23,04,29,13.70
2014,05,23,04,30,13.70
2014,05,23,04,31,13.70
2014,05,23,04,32,13.70
2014,05,23,04,33,13.70
2014,05,23,04,34,13.70
2014,05,23,04,35,13.70
2014,05,23,04,36,13.70
2014,05,23,04,37,13.70
2014,05,23,04,38,13.80
2014,05,23,04,39,13.80
2014,05,23,04,40,13.80
2014,05,23,04,41,13.80
2014,05,23,04,42,13.80
2014,05,23,04,43,13.80
2014,05,23,04,44,13.90
2014,05,23,04,45,13.90
2014,05,23,04,46,13.90
2014,05,23,04,47,13.90
2014,05,23,04,48,13.90
2014,05,23,04,49,14.00
2014,05,23,04,50,14.00
2014,05,23,04,51,14.00
2014,05,23,04,52,14.00
2014,05,23,04,53,14.00
2014,05,23,04,54,14.00
2014,05,23,04,55,14.00
2014,05,23,04,56,14.00
2014,05,23,04,57,13.90
2014,05,23,04,58,13.90
2014,05,23,04,59,13.90
2014,05,23,05,00,13.90
2014,05,23,05,01,13.90
2014,05,23,05,02,13.90
2014,05,23,05,03,13.90
2014,05,23,05,04,13.90
2014,05,23,05,05,13.80
2014,05,23,05,06,13.80
2014,05,23,05,07,13.80
2014,05,23,05,08,13.80
2014,05,23,05,09,13.80
2014,05,23,05,10,13.80
2014,05,23,05,11,13.80
2014,05,23,05,12,13.80
2014,05,23,05,13,13.70
2014,05,23,05,14,13.70
2014,05,23,05,15,13.70
2014,05,23,05,16,13.70
2014,05,23,05,17,13.70
2014,05,23,05,18,13.70
2014,05,23,05,19,13.70
2014,05,23,05,20,13.70
2014,05,23,05,21,13.70
2014,05,23,05,22,13.70
2014,05,23,05,23,13.70
2014,05,23,05,24,13.70
2014,05,23,05,25,13.70
2014,05,23,05,26,13.70
2014,05,23,05,27,13.70
2014,05,23,05,28,13.60
2014,05,23,05,29,13.60
2014,05,23,05,30,13.60
2014,05,23,05,31,13.50
2014,05,23,05,32,13.50
2014,05,23,05,33,13.50
2014,05,23,05,34,13.50
2014,05,23,05,35,13.50
2014,05,23,05,36,13.50
2014,05,23,05,37,13.50
2014,05,23,05,38,13.50
2014,05,23,05,39,13.50
2014,05,23,05,40,13.50
2014,05,23,05,41,13.50
2014,05,23,05,42,13.50
2014,05,23,05,43,13.50
2014,05,23,05,44,13.50
2014,05,23,05,45,13.50
2014,05,23,05,46,13.50
2014,05,23,05,47,13.50
2014,05,23,05,48,13.50
2014,05,23,05,49,13.50
2014,05,23,05,50,13.50
2014,05,23,05,51,13.50
2014,05,23,05,52,13.50
2014,05,23,05,53,13.50
2014,05,23,05,54,13.50
2014,05,23,05,55,13.50
2014,05,23,05,56,13.50
2014,05,23,05,57,13.50
2014,05,23,05,58,13.50
2014,05,23,05,59,13.50
2014,05,23,06,00,13.50
2014,05,23,06,01,13.50
2014,05,23,06,02,13.50
2014,05,23,06,03,13.50
2014,05,23,06,04,13.50
2014,05,23,06,05,13.50
2014,05,23,06,06,13.50
2014,05,23,06,07,13.50
2014,05,23,06,08,13.50
2014,05,23,06,09,13.50
2014,05,23,06,10,13.50
2014,05,23,06,11,13.50
2014,05,23,06,12,13.50
2014,05,23,06,13,13.50
2014,05,23,06,14,13.50
2014,05,23,06,15,13.50
2014,05,23,06,16,13.50
2014,05,23,06,17,13.40
2014,05,23,06,18,13.40
2014,05,23,06,19,13.40
2014,05,23,06,20,13.40
2014,05,23,06,21,13.40
2014,05,23,06,22,13.40
2014,05,23,06,23,13.40
2014,05,23,06,24,13.30
2014,05,23,06,25,13.30
2014,05,23,06,26,13.30
2014,05,23,06,27,13.30
2014,05,23,06,28,13.30
2014,05,23,06,29,13.20
2014,05,23,06,30,13.20
2014,05,23,06,31,13.20
2014,05,23,06,32,13.20
2014,05,23,06,33,13.20
2014,05,23,06,34,13.10
2014,05,23,06,35,13.10
2014,05,23,06,36,13.10
2014,05,23,06,37,13.10
2014,05,23,06,38,13.10
2014,05,23,06,39,13.10
2014,05,23,06,40,13.10
2014,05,23,06,41,13.10
2014,05,23,06,42,13.10
2014,05,23,06,43,13.10
2014,05,23,06,44,13.10
2014,05,23,06,45,13.00
2014,05,23,06,46,13.00
2014,05,23,06,47,13.00
2014,05,23,06,48,13.00
2014,05,23,06,49,12.90
2014,05,23,06,50,12.90
2014,05,23,06,51,12.90
2014,05,23,06,52,12.90
2014,05,23,06,53,12.90
2014,05,23,06,54,12.80
2014,05,23,06,55,12.80
2014,05,23,06,56,12.80
2014,05,23,06,57,12.80
2014,05,23,06,58,12.80
2014,05,23,06,59,12.80
2014,05,23,07,00,12.80
2014,05,23,07,01,12.80
2014,05,23,07,02,12.80
2014,05,23,07,03,12.80
2014,05,23,07,04,12.80
2014,05,23,07,05,12.80
2014,05,23,07,06,12.70
2014,05,23,07,07,12.70
2014,05,23,07,08,12.70
2014,05,23,07,09,12.70
2014,05,23,07,10,12.70
2014,05,23,07,11,12.70
2014,05,23,07,12,12.60
2014,05,23,07,13,12.60
2014,05,23,07,14,12.50
2014,05,23,07,15,12.40
2014,05,23,07,16,12.40
2014,05,23,07,17,12.40
2014,05,23,07,18,12.40
2014,05,23,07,19,12.30
2014,05,23,07,20,12.30
2014,05,23,07,21,12.30
2014,05,23,07,22,12.30
2014,05,23,07,23,12.30
2014,05,23,07,24,12.30
2014,05,23,07,25,12.30
2014,05,23,07,26,12.30
2014,05,23,07,27,12.30
2014,05,23,07,28,12.30
2014,05,23,07,29,12.30
2014,05,23,07,30,12.30
2014,05,23,07,31,12.30
2014,05,23,07,32,12.30
2014,05,23,07,33,12.30
2014,05,23,07,34,12.30
2014,05,23,07,35,12.30
2014,05,23,07,36,12.30
2014,05,23,07,37,12.30
2014,05,23,07,38,12.30
2014,05,23,07,39,12.30
2014,05,23,07,40,12.30
2014,05,23,07,41,12.30
2014,05,23,07,42,12.30
2014,05,23,07,43,12.20
2014,05,23,07,44,12.20
2014,05,23,07,45,12.20
2014,05,23,07,46,12.20
2014,05,23,07,47,12.20
2014,05,23,07,48,12.20
2014,05,23,07,49,12.20
2014,05,23,07,50,12.20
2014,05,23,07,51,12.20
2014,05,23,07,52,12.20
2014,05,23,07,53,12.20
2014,05,23,07,54,12.20
2014,05,23,07,55,12.20
2014,05,23,07,56,12.20
2014,05,23,07,57,12.20
2014,05,23,07,58,12.20
2014,05,23,07,59,12.20
2014,05,23,08,00,12.20
2014,05,23,08,01,12.20
2014,05,23,08,02,12.20
2014,05,23,08,03,12.30
2014,05,23,08,04,12.30
2014,05,23,08,05,12.20
2014,05,23,08,06,12.20
2014,05,23,08,07,12.20
2014,05,23,08,08,12.30
2014,05,23,08,09,12.30
2014,05,23,08,10,12.30
2014,05,23,08,11,12.30
2014,05,23,08,12,12.30
2014,05,23,08,13,12.20
2014,05,23,08,14,12.20
2014,05,23,08,15,12.20
2014,05,23,08,16,12.20
2014,05,23,08,17,12.20
2014,05,23,08,18,12.20
2014,05,23,08,19,12.20
2014,05,23,08,20,12.20
2014,05,23,08,21,12.20
2014,05,23,08,22,12.20
2014,05,23,08,23,12.30
2014,05,23,08,24,12.30
2014,05,23,08,25,12.30
2014,05,23,08,26,12.30
2014,05,23,08,27,12.30
2014,05,23,08,28,12.30
2014,05,23,08,29,12.30
2014,05,23,08,30,12.30
2014,05,23,08,31,12.30
2014,05,23,08,32,12.30
2014,05,23,08,33,12.30
2014,05,23,08,34,12.30
2014,05,23,08,35,12.30
2014,05,23,08,36,12.30
2014,05,23,08,37,12.30
2014,05,23,08,38,12.40
2014,05,23,08,39,12.40
2014,05,23,08,40,12.30
2014,05,23,08,41,12.40
2014,05,23,08,42,12.40
2014,05,23,08,43,12.50
2014,05,23,08,44,12.50
2014,05,23,08,45,12.50
2014,05,23,08,46,12.50
2014,05,23,08,47,12.50
2014,05,23,08,48,12.50
2014,05,23,08,49,12.50
2014,05,23,08,50,12.50
2014,05,23,08,51,12.50
2014,05,23,08,52,12.50
2014,05,23,08,53,12.50
2014,05,23,08,54,12.60
2014,05,23,08,55,12.60
2014,05,23,08,56,12.60
2014,05,23,08,57,12.50
2014,05,23,08,58,12.50
2014,05,23,08,59,12.50
2014,05,23,09,00,12.60
2014,05,23,09,01,12.60
2014,05,23,09,02,12.60
2014,05,23,09,03,12.60
2014,05,23,09,04,12.60
2014,05,23,09,05,12.60
2014,05,23,09,06,12.70
2014,05,23,09,07,12.70
2014,05,23,09,08,12.70
2014,05,23,09,09,12.70
2014,05,23,09,10,12.70
2014,05,23,09,11,12.70
2014,05,23,09,12,12.70
2014,05,23,09,13,12.70
2014,05,23,09,14,12.70
2014,05,23,09,15,12.70
2014,05,23,09,16,12.80
2014,05,23,09,17,12.80
2014,05,23,09,18,12.80
2014,05,23,09,19,12.80
2014,05,23,09,20,12.80
2014,05,23,09,21,12.80
2014,05,23,09,22,12.80
2014,05,23,09,23,12.80
2014,05,23,09,24,12.80
2014,05,23,09,25,12.80
2014,05,23,09,26,12.80
2014,05,23,09,27,12.90
2014,05,23,09,28,12.90
2014,05,23,09,29,12.90
2014,05,23,09,30,12.90
2014,05,23,09,31,12.90
2014,05,23,09,32,12.90
2014,05,23,09,33,12.90
2014,05,23,09,34,13.00
2014,05,23,09,35,13.00
2014,05,23,09,36,13.10
2014,05,23,09,37,13.10
2014,05,23,09,38,13.10
2014,05,23,09,39,13.10
2014,05,23,09,40,13.10
2014,05,23,09,41,13.10
2014,05,23,09,42,13.20
2014,05,23,09,43,13.20
2014,05,23,09,44,13.20
2014,05,23,09,45,13.20
2014,05,23,09,46,13.20
2014,05,23,09,47,13.20
2014,05,23,09,48,13.20
2014,05,23,09,49,13.30
2014,05,23,09,50,13.30
2014,05,23,09,51,13.30
2014,05,23,09,52,13.40
2014,05,23,09,53,13.40
2014,05,23,09,54,13.40
2014,05,23,09,55,13.50
2014,05,23,09,56,13.50
2014,05,23,09,57,13.60
2014,05,23,09,58,13.60
2014,05,23,09,59,13.60
2014,05,23,10,00,13.60
2014,05,23,10,01,13.60
2014,05,23,10,02,13.60
2014,05,23,10,03,13.60
2014,05,23,10,04,13.70
2014,05,23,10,05,13.70
2014,05,23,10,06,13.70
2014,05,23,10,07,13.70
2014,05,23,10,08,13.70
2014,05,23,10,09,13.70
2014,05,23,10,10,13.70
2014,05,23,10,11,13.70
2014,05,23,10,12,13.70
2014,05,23,10,13,13.70
2014,05,23,10,14,13.80
2014,05,23,10,15,13.90
2014,05,23,10,16,14.00
2014,05,23,10,17,14.10
2014,05,23,10,18,14.10
2014,05,23,10,19,14.20
2014,05,23,10,20,14.30
2014,05,23,10,21,14.40
2014,05,23,10,22,14.30
2014,05,23,10,23,14.20
2014,05,23,10,24,14.20
2014,05,23,10,25,14.30
2014,05,23,10,26,14.30
2014,05,23,10,27,14.30
2014,05,23,10,28,14.30
2014,05,23,10,29,14.40
2014,05,23,10,30,14.40
2014,05,23,10,31,14.50
2014,05,23,10,32,14.50
2014,05,23,10,33,14.60
2014,05,23,10,34,14.70
2014,05,23,10,35,14.80
2014,05,23,10,36,14.80
2014,05,23,10,37,14.90
2014,05,23,10,38,15.00
2014,05,23,10,39,15.00
2014,05,23,10,40,15.00
2014,05,23,10,41,15.10
2014,05,23,10,42,15.10
2014,05,23,10,43,15.10
2014,05,23,10,44,15.30
2014,05,23,10,45,15.40
2014,05,23,10,46,15.60
2014,05,23,10,47,15.70
2014,05,23,10,48,15.70
2014,05,23,10,49,15.70
2014,05,23,10,50,15.80
2014,05,23,10,51,15.80
2014,05,23,10,52,15.90
2014,05,23,10,53,16.00
2014,05,23,10,54,16.10
2014,05,23,10,55,16.10
2014,05,23,10,56,16.10
2014,05,23,10,57,16.10
2014,05,23,10,58,16.00
2014,05,23,10,59,16.00
2014,05,23,11,00,16.10
2014,05,23,11,01,16.10
2014,05,23,11,02,16.00
2014,05,23,11,03,15.90
2014,05,23,11,04,15.80
2014,05,23,11,05,15.80
2014,05,23,11,06,15.70
2014,05,23,11,07,15.80
2014,05,23,11,08,15.70
2014,05,23,11,09,15.70
2014,05,23,11,10,15.80
2014,05,23,11,11,15.80
2014,05,23,11,12,15.90
2014,05,23,11,13,16.10
2014,05,23,11,14,16.10
2014,05,23,11,15,16.10
2014,05,23,11,16,16.10
2014,05,23,11,17,16.10
2014,05,23,11,18,16.10
2014,05,23,11,19,15.90
2014,05,23,11,20,15.80
2014,05,23,11,21,15.80
2014,05,23,11,22,15.80
2014,05,23,11,23,15.80
2014,05,23,11,24,15.80
2014,05,23,11,25,15.80
2014,05,23,11,26,15.90
2014,05,23,11,27,15.90
2014,05,23,11,28,15.80
2014,05,23,11,29,15.80
2014,05,23,11,30,15.80
2014,05,23,11,31,15.80
2014,05,23,11,32,15.80
2014,05,23,11,33,15.80
2014,05,23,11,34,15.70
2014,05,23,11,35,15.80
2014,05,23,11,36,15.90
2014,05,23,11,37,15.90
2014,05,23,11,38,16.00
2014,05,23,11,39,16.10
2014,05,23,11,40,16.10
2014,05,23,11,41,16.10
2014,05,23,11,42,16.20
2014,05,23,11,43,16.20
2014,05,23,11,44,16.30
2014,05,23,11,45,16.40
2014,05,23,11,46,16.40
2014,05,23,11,47,16.40
2014,05,23,11,48,16.40
2014,05,23,11,49,16.40
2014,05,23,11,50,16.40
2014,05,23,11,51,16.40
2014,05,23,11,52,16.50
2014,05,23,11,53,16.60
2014,05,23,11,54,16.60
2014,05,23,11,55,16.60
2014,05,23,11,56,16.70
2014,05,23,11,57,16.70
2014,05,23,11,58,16.70
2014,05,23,11,59,16.70
2014,05,23,12,00,16.70
2014,05,23,12,01,16.70
2014,05,23,12,02,16.70
2014,05,23,12,03,16.80
2014,05,23,12,04,16.80
2014,05,23,12,05,17.00
2014,05,23,12,06,17.00
2014,05,23,12,07,17.10
2014,05,23,12,08,17.10
2014,05,23,12,09,17.00
2014,05,23,12,10,17.00
2014,05,23,12,11,16.90
2014,05,23,12,12,16.90
2014,05,23,12,13,16.90
2014,05,23,12,14,16.90
2014,05,23,12,15,16.90
2014,05,23,12,16,16.90
2014,05,23,12,17,16.80
2014,05,23,12,18,16.90
2014,05,23,12,19,16.90
2014,05,23,12,20,16.80
2014,05,23,12,21,16.70
2014,05,23,12,22,16.60
2014,05,23,12,23,16.50
2014,05,23,12,24,16.40
2014,05,23,12,25,16.40
2014,05,23,12,26,16.50
2014,05,23,12,27,16.60
2014,05,23,12,28,16.60
2014,05,23,12,29,16.60
2014,05,23,12,30,16.50
2014,05,23,12,31,16.40
2014,05,23,12,32,16.20
2014,05,23,12,33,16.10
2014,05,23,12,34,15.90
2014,05,23,12,35,15.80
2014,05,23,12,36,15.80
2014,05,23,12,37,15.80
2014,05,23,12,38,15.90
2014,05,23,12,39,15.90
2014,05,23,12,40,16.00
2014,05,23,12,41,16.10
2014,05,23,12,42,16.10
2014,05,23,12,43,16.10
2014,05,23,12,44,16.20
2014,05,23,12,45,16.20
2014,05,23,12,46,16.20
2014,05,23,12,47,16.30
2014,05,23,12,48,16.30
2014,05,23,12,49,16.50
2014,05,23,12,50,16.70
2014,05,23,12,51,16.70
2014,05,23,12,52,16.80
2014,05,23,12,53,16.80
2014,05,23,12,54,16.80
2014,05,23,12,55,16.80
2014,05,23,12,56,16.80
2014,05,23,12,57,16.90
2014,05,23,12,58,17.00
2014,05,23,12,59,17.00
2014,05,23,13,00,17.00
2014,05,23,13,01,17.10
2014,05,23,13,02,17.00
2014,05,23,13,03,17.00
2014,05,23,13,04,17.00
2014,05,23,13,05,17.10
2014,05,23,13,06,17.10
2014,05,23,13,07,17.30
2014,05,23,13,08,17.30
2014,05,23,13,09,17.40
2014,05,23,13,10,17.50
2014,05,23,13,11,17.60
2014,05,23,13,12,17.70
2014,05,23,13,13,17.60
2014,05,23,13,14,17.70
2014,05,23,13,15,17.80
2014,05,23,13,16,18.00
2014,05,23,13,17,18.20
2014,05,23,13,18,18.20
2014,05,23,13,19,18.20
2014,05,23,13,20,18.10
2014,05,23,13,21,18.00
2014,05,23,13,22,17.90
2014,05,23,13,23,17.90
2014,05,23,13,24,17.90
2014,05,23,13,25,18.10
2014,05,23,13,26,18.10
2014,05,23,13,27,18.00
2014,05,23,13,28,17.90
2014,05,23,13,29,17.80
2014,05,23,13,30,17.80
2014,05,23,13,31,17.70
2014,05,23,13,32,17.50
2014,05,23,13,33,17.40
2014,05,23,13,34,17.30
2014,05,23,13,35,17.10
2014,05,23,13,36,17.10
2014,05,23,13,37,17.00
2014,05,23,13,38,16.90
2014,05,23,13,39,16.80
2014,05,23,13,40,16.70
2014,05,23,13,41,16.70
2014,05,23,13,42,16.70
2014,05,23,13,43,16.60
2014,05,23,13,44,16.60
2014,05,23,13,45,16.50
2014,05,23,13,46,16.50
2014,05,23,13,47,16.50
2014,05,23,13,48,16.50
2014,05,23,13,49,16.60
2014,05,23,13,50,16.60
2014,05,23,13,51,16.60
2014,05,23,13,52,16.60
2014,05,23,13,53,16.70
2014,05,23,13,54,16.80
2014,05,23,13,55,16.80
2014,05,23,13,56,16.70
2014,05,23,13,57,16.70
2014,05,23,13,58,16.70
2014,05,23,13,59,16.70
2014,05,23,14,00,16.70
2014,05,23,14,01,16.70
2014,05,23,14,02,16.80
2014,05,23,14,03,16.90
2014,05,23,14,04,17.00
2014,05,23,14,05,17.00
2014,05,23,14,06,17.10
2014,05,23,14,07,17.20
2014,05,23,14,08,17.30
2014,05,23,14,09,17.40
2014,05,23,14,10,17.50
2014,05,23,14,11,17.60
2014,05,23,14,12,17.60
2014,05,23,14,13,17.70
2014,05,23,14,14,17.80
2014,05,23,14,15,17.90
2014,05,23,14,16,17.90
2014,05,23,14,17,18.10
2014,05,23,14,18,18.20
2014,05,23,14,19,18.20
2014,05,23,14,20,18.10
2014,05,23,14,21,18.00
2014,05,23,14,22,17.90
2014,05,23,14,23,17.80
2014,05,23,14,24,17.70
2014,05,23,14,25,17.60
2014,05,23,14,26,17.50
2014,05,23,14,27,17.40
2014,05,23,14,28,17.30
2014,05,23,14,29,17.30
2014,05,23,14,30,17.30
2014,05,23,14,31,17.30
2014,05,23,14,32,17.20
2014,05,23,14,33,17.20
2014,05,23,14,34,17.10
2014,05,23,14,35,17.10
2014,05,23,14,36,17.10
2014,05,23,14,37,17.20
2014,05,23,14,38,17.20
2014,05,23,14,39,17.20
2014,05,23,14,40,17.10
2014,05,23,14,41,17.00
2014,05,23,14,42,16.90
2014,05,23,14,43,16.90
2014,05,23,14,44,16.70
2014,05,23,14,45,16.50
2014,05,23,14,46,16.40
2014,05,23,14,47,16.30
2014,05,23,14,48,16.30
2014,05,23,14,49,16.20
2014,05,23,14,50,16.20
2014,05,23,14,51,16.20
2014,05,23,14,52,16.20
2014,05,23,14,53,16.20
2014,05,23,14,54,16.20
2014,05,23,14,55,16.20
2014,05,23,14,56,16.20
2014,05,23,14,57,16.30
2014,05,23,14,58,16.30
2014,05,23,14,59,16.40
2014,05,23,15,00,16.40
2014,05,23,15,01,16.30
2014,05,23,15,02,16.40
2014,05,23,15,03,16.40
2014,05,23,15,04,16.40
2014,05,23,15,05,16.40
2014,05,23,15,06,16.40
2014,05,23,15,07,16.30
2014,05,23,15,08,16.30
2014,05,23,15,09,16.40
2014,05,23,15,10,16.40
2014,05,23,15,11,16.30
2014,05,23,15,12,16.30
2014,05,23,15,13,16.20
2014,05,23,15,14,16.00
2014,05,23,15,15,15.90
2014,05,23,15,16,15.80
2014,05,23,15,17,15.80
2014,05,23,15,18,15.70
2014,05,23,15,19,15.50
2014,05,23,15,20,15.40
2014,05,23,15,21,15.30
2014,05,23,15,22,15.30
2014,05,23,15,23,15.30
2014,05,23,15,24,15.30
2014,05,23,15,25,15.40
2014,05,23,15,26,15.50
2014,05,23,15,27,15.60
2014,05,23,15,28,15.60
2014,05,23,15,29,15.60
2014,05,23,15,30,15.70
2014,05,23,15,31,15.70
2014,05,23,15,32,15.60
2014,05,23,15,33,15.60
2014,05,23,15,34,15.50
2014,05,23,15,35,15.50
2014,05,23,15,36,15.50
2014,05,23,15,37,15.50
2014,05,23,15,38,15.60
2014,05,23,15,39,15.70
2014,05,23,15,40,15.70
2014,05,23,15,41,15.70
2014,05,23,15,42,15.70
2014,05,23,15,43,15.80
2014,05,23,15,44,15.80
2014,05,23,15,45,15.80
2014,05,23,15,46,15.80
2014,05,23,15,47,15.80
2014,05,23,15,48,15.80
2014,05,23,15,49,15.80
2014,05,23,15,50,15.90
2014,05,23,15,51,15.90
2014,05,23,15,52,16.00
2014,05,23,15,53,16.10
2014,05,23,15,54,16.10
2014,05,23,15,55,16.20
2014,05,23,15,56,16.20
2014,05,23,15,57,16.30
2014,05,23,15,58,16.40
2014,05,23,15,59,16.40
2014,05,23,16,00,16.40
2014,05,23,16,01,16.40
2014,05,23,16,02,16.30
2014,05,23,16,03,16.30
2014,05,23,16,04,16.30
2014,05,23,16,05,16.30
2014,05,23,16,06,16.30
2014,05,23,16,07,16.20
2014,05,23,16,08,16.10
2014,05,23,16,09,16.20
2014,05,23,16,10,16.20
2014,05,23,16,11,16.20
2014,05,23,16,12,16.30
2014,05,23,16,13,16.40
2014,05,23,16,14,16.40
2014,05,23,16,15,16.60
2014,05,23,16,16,16.70
2014,05,23,16,17,16.80
2014,05,23,16,18,16.80
2014,05,23,16,19,16.70
2014,05,23,16,20,16.60
2014,05,23,16,21,16.60
2014,05,23,16,22,16.60
2014,05,23,16,23,16.50
2014,05,23,16,24,16.40
2014,05,23,16,25,16.40
2014,05,23,16,26,16.40
2014,05,23,16,27,16.40
2014,05,23,16,28,16.40
2014,05,23,16,29,16.40
2014,05,23,16,30,16.30
2014,05,23,16,31,16.40
2014,05,23,16,32,16.40
2014,05,23,16,33,16.40
2014,05,23,16,34,16.30
2014,05,23,16,35,16.20
2014,05,23,16,36,16.10
2014,05,23,16,37,16.20
2014,05,23,16,38,16.20
2014,05,23,16,39,16.20
2014,05,23,16,40,16.20
2014,05,23,16,41,16.20
2014,05,23,16,42,16.20
2014,05,23,16,43,16.20
2014,05,23,16,44,16.30
2014,05,23,16,45,16.30
2014,05,23,16,46,16.30
2014,05,23,16,47,16.30
2014,05,23,16,48,16.30
2014,05,23,16,49,16.30
2014,05,23,16,50,16.30
2014,05,23,16,51,16.30
2014,05,23,16,52,16.40
2014,05,23,16,53,16.40
2014,05,23,16,54,16.50
2014,05,23,16,55,16.70
2014,05,23,16,56,16.80
2014,05,23,16,57,16.90
2014,05,23,16,58,16.90
2014,05,23,16,59,17.00
2014,05,23,17,00,17.00
2014,05,23,17,01,17.00
2014,05,23,17,02,17.00
2014,05,23,17,03,17.10
2014,05,23,17,04,17.10
2014,05,23,17,05,17.10
2014,05,23,17,06,17.10
2014,05,23,17,07,17.10
2014,05,23,17,08,17.10
2014,05,23,17,09,17.00
2014,05,23,17,10,17.00
2014,05,23,17,11,17.00
2014,05,23,17,12,16.90
2014,05,23,17,13,16.90
2014,05,23,17,14,16.90
2014,05,23,17,15,17.00
2014,05,23,17,16,17.00
2014,05,23,17,17,17.00
2014,05,23,17,18,17.00
2014,05,23,17,19,17.00